Location: La Silve
(44.2414°N, 5.8889°E)
Time: 13:11:46
(UTC+00:00)

SL-24 R/B - Pass Details

Date: 01 December 2020
Orbit: 505 x 1002 km, 97.4° (Epoch: 25 January)

Event Time Altitude Azimuth Distance (km) Brightness Sun altitude
Exits shadow 17:49:31 38° 24° (NNE) 812 4.3 -19.2°
Maximum altitude 17:50:52 75° 101° (E) 536 3.5 -19.5°
Drops below altitude 10° 17:54:29 10° 188° (S) 1,713 6.6 -20.1°
Sets 17:56:32 0° 190° (S) 2,596 7.5 -20.5°
